Mitchell, SD

4:19 PM CST on November 14, 2019 (GMT -0600)
Mitchell Municipal

Weather History for KMHE - April, 2019

Change the Weather History Date:

Tuesday, April 30, 2019

  Actual Average Record
Temperature  
Mean Temperature 43 °F 54 °F  
Max Temperature 47 °F 67 °F 96 °F (1934)
Min Temperature 39 °F 42 °F 14 °F (1903)
Degree Days  
Heating Degree Days 22 11  
Month to date heating degree days 553 518  
Since 1 July heating degree days 7688 7000  
Cooling Degree Days 0 0  
Month to date cooling degree days 0 2  
Year to date cooling degree days 0 2  
Moisture  
Dew Point 38 °F    
Average Humidity 83    
Maximum Humidity 89    
Minimum Humidity 76    
Precipitation  
Precipitation 0.02 in 0.10 in 1.40 in (1911)
Month to date precipitation 3.16 2.18  
Year to date precipitation 7.58 3.80  
Snow  
Snow 0.00 in - 0.50 in (1954)
Month to date snowfall 16.5  
Since 1 July snowfall 67.6  
Snow Depth 0.00 in    
Sea Level Pressure  
Sea Level Pressure 30.13 in    
Wind  
Wind Speed 8 mph (NE)    
Max Wind Speed 12 mph    
Max Gust Speed -    
Visibility 9 miles    
Events Rain    
T = Trace of Precipitation, MM = Missing Value Source: NWS Daily Summary

Daily Weather History Graph

Daily Weather History Graph

Search for Another Location

Airport or City:

Astronomy

Apr. 30, 2019 Rise Set
Actual Time 6:25 AM CDT 8:33 PM CDT
Civil Twilight 5:54 AM CDT 9:05 PM CDT
Nautical Twilight 5:15 AM CDT 9:43 PM CDT
Astronomical Twilight 4:33 AM CDT 10:26 PM CDT
Moon 4:55 AM CDT (4/30) 4:14 PM CDT (4/30)
Length of Visible Light 15h 10m
Length of Day
14h 07m
Waning Crescent, 17% of the Moon is Illuminated
Apr 30
Waning Crescent
May 4
New
May 11
First Quarter
May 18
Full
May 26
Last Quarter

Hourly Weather History & Observations

Time (CDT) Temp. Windchill Dew Point Humidity Pressure Visibility Wind Dir Wind Speed Gust Speed Precip Events Conditions
12:53 AM 41.0 °F 34.3 °F 35.1 °F 79% 30.25 in 10.0 mi North 11.5 mph - N/A   Overcast
1:53 AM 41.0 °F 35.2 °F 35.1 °F 79% 30.25 in 10.0 mi North 9.2 mph - N/A   Overcast
2:53 AM 39.9 °F 33.4 °F 35.1 °F 83% 30.23 in 10.0 mi North 10.4 mph - N/A   Overcast
3:53 AM 39.9 °F 35.1 °F 35.1 °F 83% 30.23 in 10.0 mi North 6.9 mph - N/A   Overcast
4:53 AM 39.9 °F 35.8 °F 35.1 °F 83% 30.23 in 10.0 mi North 5.8 mph - N/A   Overcast
5:53 AM 39.9 °F 34.5 °F 35.1 °F 83% 30.21 in 10.0 mi NE 8.1 mph - 0.00 in   Overcast
6:53 AM 39.0 °F 34.8 °F 36.0 °F 89% 30.22 in 10.0 mi NE 5.8 mph - 0.00 in Rain Light Rain
7:53 AM 39.0 °F 33.4 °F 35.1 °F 86% 30.22 in 8.0 mi East 8.1 mph - 0.01 in Rain Light Rain
8:53 AM 39.9 °F 34.5 °F 35.1 °F 83% 30.21 in 10.0 mi East 8.1 mph - 0.01 in Rain Light Rain
9:53 AM 39.9 °F 35.1 °F 36.0 °F 86% 30.19 in 10.0 mi ENE 6.9 mph - 0.00 in   Overcast
10:53 AM 41.0 °F 35.8 °F 36.0 °F 82% 30.16 in 10.0 mi ENE 8.1 mph - 0.00 in Rain Light Rain
11:53 AM 42.1 °F 39.2 °F 36.0 °F 79% 30.18 in 10.0 mi East 4.6 mph - 0.00 in   Overcast
12:03 PM 42.1 °F 39.2 °F 36.0 °F 79% 30.15 in 10.0 mi NE 4.6 mph - N/A   Overcast
12:41 PM 43.0 °F 38.8 °F 37.0 °F 80% 30.13 in 10.0 mi NNE 6.9 mph - N/A   Overcast
12:53 PM 43.0 °F 38.2 °F 36.0 °F 76% 30.14 in 10.0 mi NNE 8.1 mph - N/A   Overcast
1:08 PM 43.0 °F 38.2 °F 37.0 °F 80% 30.11 in 9.0 mi NE 8.1 mph - N/A   Overcast
1:23 PM 42.1 °F 37.7 °F 37.9 °F 85% 30.11 in 4.0 mi NE 6.9 mph - N/A   Overcast
1:30 PM 42.1 °F 37.7 °F 37.9 °F 85% 30.11 in 4.0 mi NE 6.9 mph - N/A   Overcast
1:37 PM 42.1 °F 38.4 °F 39.0 °F 89% 30.11 in 2.0 mi NE 5.8 mph - N/A   Overcast
1:48 PM 42.8 °F 38.6 °F 39.2 °F 87% 30.10 in 2.0 mi NNE 6.9 mph - N/A   Overcast
1:53 PM 42.1 °F 37.7 °F 39.0 °F 89% 30.13 in 3.0 mi ENE 6.9 mph - N/A   Overcast
2:02 PM 43.0 °F 38.8 °F 39.0 °F 86% 30.10 in 10.0 mi ENE 6.9 mph - N/A   Overcast
2:53 PM 45.0 °F 40.6 °F 39.0 °F 80% 30.11 in 10.0 mi ENE 8.1 mph - N/A   Overcast
3:53 PM 45.0 °F 41.8 °F 37.9 °F 76% 30.10 in 10.0 mi NE 5.8 mph - N/A   Overcast
4:53 PM 46.0 °F 43.9 °F 39.0 °F 76% 30.07 in 10.0 mi NE 4.6 mph - N/A   Overcast
5:53 PM 46.9 °F - 39.9 °F 77% 30.06 in 10.0 mi NE 5.8 mph - N/A   Overcast
6:53 PM 46.9 °F - 41.0 °F 80% 30.06 in 10.0 mi NNE 6.9 mph - N/A   Overcast
7:08 PM 46.0 °F 41.0 °F 41.0 °F 83% 30.04 in 10.0 mi East 10.4 mph - N/A   Overcast
7:33 PM 45.0 °F 38.9 °F 39.9 °F 82% 30.04 in 8.0 mi East 12.7 mph - 0.00 in   Overcast
7:40 PM 44.1 °F 37.7 °F 39.9 °F 85% 30.04 in 10.0 mi ENE 12.7 mph - 0.00 in   Overcast
7:53 PM 44.1 °F 39.0 °F 39.9 °F 85% 30.07 in 10.0 mi ENE 9.2 mph - 0.00 in   Overcast
8:51 PM 44.6 °F 40.2 °F 39.2 °F 81% 30.05 in 10.0 mi NE 8.1 mph - 0.00 in   Overcast
8:53 PM 44.1 °F 40.1 °F 39.9 °F 85% 30.08 in 10.0 mi ENE 6.9 mph - 0.00 in   Overcast
9:05 PM 44.1 °F 39.5 °F 39.9 °F 85% 30.05 in 10.0 mi NE 8.1 mph - 0.00 in Rain Light Rain
9:53 PM 43.0 °F 38.2 °F 39.9 °F 89% 30.10 in 10.0 mi NE 8.1 mph - 0.00 in Rain Light Rain
10:53 PM 43.0 °F 38.2 °F 39.0 °F 86% 30.09 in 10.0 mi NNE 8.1 mph - 0.00 in Rain Light Rain
11:53 PM 42.1 °F 36.6 °F 39.0 °F 89% 30.07 in 8.0 mi NNE 9.2 mph - 0.00 in   Overcast